Flag for Germany Weather past 2 weeks in Landau in der Pfalz, Rhineland-Palatinate, Germany

Now
64 °F

Fog.


Feels Like: 64 °F
Forecast: 62 / 79 °F
Wind: 5 mph from Southeast

Location: Baden Wurttemberg - Neuostheim

Current Time: Jul 29, 2014 at 10:49:26 AM

Latest Report: Jul 29, 2014 at 9:50 AM


Visibility: 3 mi

Pressure: 29.80 "Hg

Humidity: 100%

Dew point: 64 °F

Location of Landau in der PfalzLocation

Historic Weather in Landau in der Pfalz — Graph

°F

Landau in der Pfalz temperature yesterday

Maximum temperature yesterday: 84 °F (at 4:20 PM)
Minimum temperature yesterday: 63 °F (at 5:50 AM)
Average temperature yesterday: 74 °F

Past Weeks' High & Low Weather Summary

 TemperatureHumidityPressure
High93 °F (Jul 18, 4:50 PM)100% (Jul 21, 5:50 AM)30.18 "Hg (Jul 21, 5:50 AM)
Low59 °F (Jul 15, 5:20 AM)20% (Jul 18, 5:50 PM)29.77 "Hg (Jul 28, 5:20 PM)
Average75 °F59%29.97 "Hg
* Reported Jul 14 9:20 AM — Jul 29 9:50 AM, Landau in der Pfalz, Weather by CustomWeather, © 2014

Note: Actual official high and low records may vary slightly from our data, if they occured in-between our weather recording intervals... More about our weather records

Advertising

Landau in der Pfalz weather history for previous 24 hours

 ConditionsComfort  
Time TempWeatherWind HumidityBarometerVisibility
9:50 AM
Jul 29
64 °FFog.5 mph100%29.80 "Hg3 mi
9:20 AM64 °FFog.5 mph100%29.80 "Hg3 mi
8:50 AM64 °FFog.3 mph100%29.80 "Hg2 mi
8:20 AM64 °FFog.3 mph100%29.80 "Hg2 mi
7:50 AM64 °FFog.5 mph100%29.77 "Hg1 mi
7:20 AM64 °FFog.3 mph100%29.77 "Hg1 mi
6:50 AM64 °FFog.3 mph100%29.77 "Hg3 mi
6:20 AM64 °FMostly cloudy.3 mph100%29.77 "Hg5 mi
5:50 AM64 °FLow clouds.6 mph100%29.77 "Hg5 mi
5:20 AM66 °FMostly cloudy.5 mph94%29.77 "Hg5 mi
10:20 PM
Jul 28
72 °FSprinkles. Partly cloudy.6 mph73%29.83 "HgN/A
9:50 PM73 °FScattered showers. Broken clouds.8 mph69%29.80 "HgN/A
9:20 PM73 °FBroken clouds.6 mph74%29.80 "HgN/A
8:50 PM73 °FPartly sunny.9 mph69%29.80 "HgN/A
8:20 PM73 °FSunny.12 mph65%29.80 "Hg10 mi
7:50 PM75 °FPartly sunny.10 mph65%29.80 "HgN/A
7:20 PM77 °FPartly sunny.7 mph61%29.77 "HgN/A
6:50 PM77 °FPartly sunny.7 mph61%29.77 "HgN/A
6:20 PM77 °FBroken clouds.7 mph57%29.77 "HgN/A
5:50 PM79 °FThundershowers. Scattered clouds.9 mph54%29.77 "HgN/A
5:20 PM79 °FScattered clouds.13 mph54%29.77 "HgN/A
4:50 PM79 °FScattered clouds.13 mph58%29.80 "HgN/A
4:20 PM84 °FPassing clouds.2 mph43%29.80 "HgN/A
3:50 PM82 °FSunny.3 mph45%29.80 "Hg10 mi
3:20 PM81 °FScattered clouds.3 mph48%29.80 "HgN/A
2:50 PM81 °FScattered clouds.5 mph51%29.80 "HgN/A
2:20 PM82 °FPassing clouds.3 mph48%29.83 "HgN/A
1:50 PM81 °FPassing clouds.3 mph51%29.83 "HgN/A
1:20 PM81 °FPassing clouds.3 mph54%29.86 "HgN/A
12:50 PM79 °FPassing clouds.3 mph58%29.86 "HgN/A
12:20 PM79 °FPassing clouds.5 mph58%29.86 "HgN/A
11:50 AM77 °FPassing clouds.6 mph61%29.86 "HgN/A
11:20 AM77 °FSunny.5 mph65%29.86 "Hg10 mi
10:50 AM73 °FSunny.3 mph74%29.89 "Hg10 mi
10:20 AM70 °FSunny.3 mph78%29.89 "Hg10 mi
Weather by CustomWeather, © 2014

See weather overviewHow to use our weather pages